Gas Snapper — V7TZ3 — position and weather

sailwx.info

Track history (hours):
 
Tides and Currents Weather Stations Pressure Air Temp Water Temp Dewpoint Dewpoint Depression Visibility Wind Speed Wind Dir Waves Ship Positions

Gas Snapper

Last reported at 2016-May-01 01:33 UTC. Time now 2016-May-01 17:29 UTC.
Position N 40°51' E 028°46'.

Length 174 m; draft 10.2 m.

Type: Ship (hazmat cat D). MMSI: 538003911.

Date/timePositionNaut miles runAvg speedWind from/ knotsBaromVisibWave heightAir tempDewpointWater temp
2016-May-01 01:33N 40°51' E 028°46'14 1.7
2016-Apr-30 17:30N 41°00' E 028°60'28911.1
2016-Apr-29 15:24N 45°37' E 030°55'3110.9
2016-Apr-29 12:33N 46°07' E 031°04'1110.2
2016-Apr-29 11:27N 46°16' E 030°53'9 9.9
2016-Apr-29 10:33N 46°25' E 030°55'9 8.8
2016-Apr-29 09:33N 46°33' E 030°59'4 0.7
2016-Apr-29 03:22N 46°37' E 031°01'1 0.0
2016-Apr-28 01:33N 46°36' E 031°01'5 5.0
2016-Apr-28 00:32N 46°31' E 030°59'0 0.0
2016-Apr-27 23:32N 46°31' E 030°59'0 0.0
2016-Apr-27 22:23N 46°31' E 030°59'0 0.0
2016-Apr-27 21:20N 46°31' E 030°59'0 0.0
2016-Apr-27 20:32N 46°31' E 030°59'0 0.0
2016-Apr-27 19:20N 46°31' E 030°59'0 0.0
2016-Apr-27 18:20N 46°31' E 030°59'0 0.0
2016-Apr-27 17:29N 46°31' E 030°59'0 0.0
2016-Apr-27 16:32N 46°31' E 030°59'0 0.0
2016-Apr-27 15:29N 46°31' E 030°59'0 0.0
2016-Apr-27 14:32N 46°31' E 030°59'0 0.0
2016-Apr-27 13:17N 46°31' E 030°59'0 0.0
2016-Apr-27 12:32N 46°31' E 030°59'0 0.0
2016-Apr-27 11:32N 46°31' E 030°59'0 0.0
2016-Apr-27 10:32N 46°31' E 030°59'0 0.0
2016-Apr-27 09:26N 46°31' E 030°59'0 0.0
2016-Apr-27 08:26N 46°31' E 030°59'0 0.0
2016-Apr-27 07:29N 46°31' E 030°59'0 0.1
2016-Apr-27 06:33N 46°31' E 030°59'1010.3
2016-Apr-27 05:33N 46°21' E 030°57'34410.3
2016-Apr-25 20:14N 40°49' E 028°57'0 0.3
2016-Apr-25 19:34N 40°48' E 028°57'0 0.4
2016-Apr-25 18:33N 40°48' E 028°57'0 0.2
2016-Apr-25 17:34N 40°48' E 028°56'1 1.5
2016-Apr-25 16:34N 40°49' E 028°58'0 0.1
2016-Apr-25 15:29N 40°49' E 028°58'0 0.2
2016-Apr-25 14:34N 40°49' E 028°57'0 0.3
2016-Apr-25 13:33N 40°49' E 028°57'0 0.4
2016-Apr-25 12:34N 40°49' E 028°57'1 0.3
2016-Apr-25 10:33N 40°50' E 028°56'1 0.5
2016-Apr-25 09:25N 40°50' E 028°55'1 0.8
2016-Apr-25 08:28N 40°50' E 028°56'3 2.9
2016-Apr-25 07:33N 40°49' E 028°53'207 6.2
2016-Apr-23 22:11N 38°51' E 025°12'1116.5
2016-Apr-23 21:30N 38°41' E 025°06'3216.3
2016-Apr-23 19:33N 38°12' E 024°47'1615.7
2016-Apr-23 18:33N 37°58' E 024°39'1515.5
2016-Apr-23 17:33N 37°43' E 024°32'2015.9
2016-Apr-23 16:18N 37°27' E 024°19'1716.0
2016-Apr-23 15:14N 37°11' E 024°10'1216.2
2016-Apr-23 14:28N 36°59' E 024°06'1516.2
2016-Apr-23 13:33N 36°45' E 023°60'1616.4
2016-Apr-23 12:33N 36°35' E 023°44'1716.1
2016-Apr-23 11:30N 36°27' E 023°25'42414.7
2016-Apr-22 06:33N 36°25' E 014°38'1514.8
2016-Apr-22 05:33N 36°25' E 014°19'1514.9
2016-Apr-22 04:34N 36°25' E 014°01'1515.1
2016-Apr-22 03:33N 36°30' E 013°43'3715.4
2016-Apr-22 01:07N 36°43' E 012°59'9215.2
2016-Apr-21 19:06N 37°21' E 011°15'  
Track history (hours):
 
Tides and Currents Weather Stations Pressure Air Temp Water Temp Dewpoint Dewpoint Depression Visibility Wind Speed Wind Dir Waves Ship Positions

Gas Snapper

Last reported at 2016-May-01 01:33 UTC. Time now 2016-May-01 17:29 UTC.
Position N 40°51' E 028°46'.

Length 174 m; draft 10.2 m.

Type: Ship (hazmat cat D). MMSI: 538003911.

Date/timePositionNaut miles runAvg speedWind from/ knotsBaromVisibWave heightAir tempDewpointWater temp
2016-May-01 01:33N 40°51' E 028°46'14 1.7
2016-Apr-30 17:30N 41°00' E 028°60'28911.1
2016-Apr-29 15:24N 45°37' E 030°55'3110.9
2016-Apr-29 12:33N 46°07' E 031°04'1110.2
2016-Apr-29 11:27N 46°16' E 030°53'9 9.9
2016-Apr-29 10:33N 46°25' E 030°55'9 8.8
2016-Apr-29 09:33N 46°33' E 030°59'4 0.7
2016-Apr-29 03:22N 46°37' E 031°01'1 0.0
2016-Apr-28 01:33N 46°36' E 031°01'5 5.0
2016-Apr-28 00:32N 46°31' E 030°59'0 0.0
2016-Apr-27 23:32N 46°31' E 030°59'0 0.0
2016-Apr-27 22:23N 46°31' E 030°59'0 0.0
2016-Apr-27 21:20N 46°31' E 030°59'0 0.0
2016-Apr-27 20:32N 46°31' E 030°59'0 0.0
2016-Apr-27 19:20N 46°31' E 030°59'0 0.0
2016-Apr-27 18:20N 46°31' E 030°59'0 0.0
2016-Apr-27 17:29N 46°31' E 030°59'0 0.0
2016-Apr-27 16:32N 46°31' E 030°59'0 0.0
2016-Apr-27 15:29N 46°31' E 030°59'0 0.0
2016-Apr-27 14:32N 46°31' E 030°59'0 0.0
2016-Apr-27 13:17N 46°31' E 030°59'0 0.0
2016-Apr-27 12:32N 46°31' E 030°59'0 0.0
2016-Apr-27 11:32N 46°31' E 030°59'0 0.0
2016-Apr-27 10:32N 46°31' E 030°59'0 0.0
2016-Apr-27 09:26N 46°31' E 030°59'0 0.0
2016-Apr-27 08:26N 46°31' E 030°59'0 0.0
2016-Apr-27 07:29N 46°31' E 030°59'0 0.1
2016-Apr-27 06:33N 46°31' E 030°59'1010.3
2016-Apr-27 05:33N 46°21' E 030°57'34410.3
2016-Apr-25 20:14N 40°49' E 028°57'0 0.3
2016-Apr-25 19:34N 40°48' E 028°57'0 0.4
2016-Apr-25 18:33N 40°48' E 028°57'0 0.2
2016-Apr-25 17:34N 40°48' E 028°56'1 1.5
2016-Apr-25 16:34N 40°49' E 028°58'0 0.1
2016-Apr-25 15:29N 40°49' E 028°58'0 0.2
2016-Apr-25 14:34N 40°49' E 028°57'0 0.3
2016-Apr-25 13:33N 40°49' E 028°57'0 0.4
2016-Apr-25 12:34N 40°49' E 028°57'1 0.3
2016-Apr-25 10:33N 40°50' E 028°56'1 0.5
2016-Apr-25 09:25N 40°50' E 028°55'1 0.8
2016-Apr-25 08:28N 40°50' E 028°56'3 2.9
2016-Apr-25 07:33N 40°49' E 028°53'207 6.2
2016-Apr-23 22:11N 38°51' E 025°12'1116.5
2016-Apr-23 21:30N 38°41' E 025°06'3216.3
2016-Apr-23 19:33N 38°12' E 024°47'1615.7
2016-Apr-23 18:33N 37°58' E 024°39'1515.5
2016-Apr-23 17:33N 37°43' E 024°32'2015.9
2016-Apr-23 16:18N 37°27' E 024°19'1716.0
2016-Apr-23 15:14N 37°11' E 024°10'1216.2
2016-Apr-23 14:28N 36°59' E 024°06'1516.2
2016-Apr-23 13:33N 36°45' E 023°60'1616.4
2016-Apr-23 12:33N 36°35' E 023°44'1716.1
2016-Apr-23 11:30N 36°27' E 023°25'42414.7
2016-Apr-22 06:33N 36°25' E 014°38'1514.8
2016-Apr-22 05:33N 36°25' E 014°19'1514.9
2016-Apr-22 04:34N 36°25' E 014°01'1515.1
2016-Apr-22 03:33N 36°30' E 013°43'3715.4
2016-Apr-22 01:07N 36°43' E 012°59'9215.2
2016-Apr-21 19:06N 37°21' E 011°15'  

Dump ship's entire track history